Weather History for KPEO - September, 2013

Change the Weather History Date:

Saturday, September 21, 2013

  Actual Average (KITH) Record (KITH)
Temperature  
Mean Temperature 62 °F -  
Max Temperature 71 °F 70 °F 90 °F (1931)
Min Temperature 55 °F 48 °F 29 °F (1929)
Degree Days  
Heating Degree Days 2    
Growing Degree Days 12 (Base 50)    
Moisture  
Dew Point 58 °F    
Average Humidity 84    
Maximum Humidity 94    
Minimum Humidity 65    
Precipitation  
Precipitation 0.63 in - - ()
Sea Level Pressure  
Sea Level Pressure 29.70 in    
Wind  
Wind Speed 9 mph (SSW)    
Max Wind Speed 17 mph    
Max Gust Speed 31 mph    
Visibility 6 miles    
Events Rain    
Averages and records for this station are not official NWS values.
T = Trace of Precipitation, MM = Missing Value Source: NWS Daily Summary

Daily Weather History Graph

Daily Weather History Graph

Search for Another Location

Airport or City:

Trip Planner

Search our weather history database for the weather conditions in past years. The results will help you decide how hot, cold, wet, or windy it might be!

Date:

Astronomy

Sep. 21, 2013 Rise Set
Actual Time 6:54 AM EDT 7:06 PM EDT
Civil Twilight 6:26 AM EDT 7:35 PM EDT
Nautical Twilight 5:53 AM EDT 8:08 PM EDT
Astronomical Twilight 5:19 AM EDT 8:41 PM EDT
Moon 8:11 PM EDT (9/21) 9:14 AM EDT (9/21)
Length of Visible Light 13h 08m
Length of Day
12h 12m
Waning Gibbous, 94% of the Moon is Illuminated
Sep 21
Waning Gibbous
Sep 26
Last Quarter
Oct 4
New
Oct 11
First Quarter
Oct 18
Full

Hourly Weather History & Observations

Time (EDT) Temp. Dew Point Humidity Pressure Visibility Wind Dir Wind Speed Gust Speed Precip Events Conditions
12:53 AM 68.0 °F 55.9 °F 65% 29.82 in 10.0 mi South 11.5 mph 18.4 mph N/A   Clear
1:53 AM 66.9 °F 55.9 °F 68% 29.81 in 10.0 mi South 12.7 mph 18.4 mph N/A   Clear
2:53 AM 66.0 °F 55.9 °F 70% 29.79 in 10.0 mi South 12.7 mph 24.2 mph N/A   Clear
3:53 AM 64.9 °F 57.0 °F 75% 29.78 in 10.0 mi South 10.4 mph 19.6 mph N/A   Clear
4:53 AM 64.9 °F 57.0 °F 75% 29.77 in 10.0 mi South 12.7 mph 20.7 mph N/A   Clear
5:53 AM 64.9 °F 57.9 °F 78% 29.76 in 10.0 mi South 15.0 mph 21.9 mph N/A   Clear
6:53 AM 66.0 °F 57.9 °F 75% 29.75 in 8.0 mi SSW 15.0 mph 20.7 mph N/A   Scattered Clouds
7:02 AM 66.2 °F 59.0 °F 78% 29.77 in 8.0 mi South 8.1 mph 19.6 mph N/A   Mostly Cloudy
7:53 AM 66.9 °F 59.0 °F 76% 29.74 in 8.0 mi South 8.1 mph 16.1 mph N/A   Overcast
8:53 AM 68.0 °F 60.1 °F 76% 29.72 in 8.0 mi South 11.5 mph 17.3 mph N/A   Mostly Cloudy
9:12 AM 68.0 °F 59.0 °F 73% 29.74 in 8.0 mi South 13.8 mph 20.7 mph N/A   Scattered Clouds
9:26 AM 68.0 °F 60.8 °F 78% 29.74 in 8.0 mi South 11.5 mph 21.9 mph N/A   Mostly Cloudy
9:53 AM 70.0 °F 60.1 °F 71% 29.70 in 9.0 mi South 9.2 mph 21.9 mph N/A   Overcast
10:53 AM 69.1 °F 59.0 °F 70% 29.68 in 9.0 mi South 11.5 mph 19.6 mph N/A   Overcast
11:08 AM 69.8 °F 60.8 °F 73% 29.69 in 9.0 mi South 11.5 mph 24.2 mph N/A   Scattered Clouds
11:36 AM 69.8 °F 59.0 °F 68% 29.68 in 9.0 mi South 16.1 mph 28.8 mph N/A   Overcast
11:53 AM 70.0 °F 60.1 °F 71% 29.66 in 9.0 mi South 17.3 mph 31.1 mph N/A   Overcast
12:53 PM 69.1 °F 59.0 °F 70% 29.65 in 7.0 mi SSW 13.8 mph 24.2 mph N/A   Overcast
1:12 PM 69.8 °F 59.0 °F 68% 29.66 in 0.8 mi SSW 15.0 mph 28.8 mph N/A   Haze
1:49 PM 68.0 °F 59.0 °F 73% 29.67 in 2.0 mi SW 13.8 mph 21.9 mph 0.00 in Rain Light Rain
1:53 PM 66.9 °F 60.1 °F 79% 29.65 in 2.0 mi SW 8.1 mph 21.9 mph 0.02 in Rain Heavy Rain
2:09 PM 64.4 °F 60.8 °F 88% 29.68 in 1.2 mi West 8.1 mph - 0.08 in Rain Heavy Rain
2:22 PM 62.6 °F 59.0 °F 88% 29.67 in 2.5 mi Calm Calm - 0.11 in Rain Rain
2:31 PM 60.8 °F 59.0 °F 94% 29.67 in 3.0 mi Variable 4.6 mph - 0.13 in Rain Light Rain
2:50 PM 60.8 °F 59.0 °F 94% 29.67 in 2.0 mi Variable 3.5 mph - 0.17 in Rain Rain
2:53 PM 61.0 °F 59.0 °F 93% 29.67 in 2.0 mi Calm Calm - 0.18 in Rain Heavy Rain
3:05 PM 60.8 °F 59.0 °F 94% 29.68 in 1.5 mi Calm Calm - 0.03 in Rain Rain
3:10 PM 60.8 °F 59.0 °F 94% 29.68 in 2.0 mi Calm Calm - 0.04 in Rain Rain
3:14 PM 60.8 °F 59.0 °F 94% 29.69 in 3.0 mi West 4.6 mph - 0.05 in Rain Light Rain
3:20 PM 60.8 °F 57.2 °F 88% 29.69 in 2.0 mi WNW 4.6 mph - 0.07 in Rain Rain
3:24 PM 60.8 °F 59.0 °F 94% 29.68 in 1.8 mi Variable 3.5 mph - 0.08 in Rain Heavy Rain
3:30 PM 60.8 °F 57.2 °F 88% 29.68 in 2.0 mi Variable 3.5 mph - 0.09 in Rain Rain
3:50 PM 60.8 °F 57.2 °F 88% 29.69 in 2.0 mi West 4.6 mph - 0.14 in Rain Rain
3:53 PM 61.0 °F 57.9 °F 90% 29.68 in 2.0 mi WSW 4.6 mph - 0.15 in Rain Rain
4:03 PM 60.8 °F 57.2 °F 88% 29.68 in 2.5 mi West 4.6 mph - 0.02 in Rain Rain
4:38 PM 60.8 °F 57.2 °F 88% 29.68 in 2.5 mi Variable 4.6 mph - 0.08 in Rain Rain
4:46 PM 60.8 °F 57.2 °F 88% 29.69 in 3.0 mi Calm Calm - 0.09 in Rain Rain
4:53 PM 60.1 °F 57.9 °F 93% 29.68 in 3.0 mi West 3.5 mph - 0.10 in Rain Rain
5:53 PM 60.1 °F 57.9 °F 93% 29.69 in 4.0 mi South 3.5 mph - 0.07 in Rain Rain
6:53 PM 59.0 °F 57.0 °F 93% 29.68 in 6.0 mi SSE 5.8 mph - 0.05 in Rain Light Rain
7:53 PM 59.0 °F 57.0 °F 93% 29.67 in 7.0 mi SSE 4.6 mph - 0.05 in Rain Light Rain
8:53 PM 59.0 °F 57.0 °F 93% 29.68 in 10.0 mi SSW 4.6 mph - 0.01 in   Mostly Cloudy
9:18 PM 60.8 °F 57.2 °F 88% 29.69 in 10.0 mi South 5.8 mph - N/A   Overcast
9:34 PM 59.0 °F 57.2 °F 94% 29.69 in 10.0 mi South 5.8 mph - N/A   Overcast
9:49 PM 59.0 °F 57.2 °F 94% 29.68 in 10.0 mi SSW 5.8 mph - N/A   Overcast
9:53 PM 59.0 °F 57.0 °F 93% 29.68 in 10.0 mi SSW 6.9 mph - N/A   Overcast
10:53 PM 59.0 °F 57.0 °F 93% 29.70 in 9.0 mi West 10.4 mph - 0.00 in Rain Light Rain
11:00 PM 57.2 °F 53.6 °F 88% 29.72 in 8.0 mi WNW 10.4 mph 19.6 mph 0.00 in Rain Light Rain
11:20 PM 55.4 °F 53.6 °F 94% 29.72 in 10.0 mi WNW 4.6 mph - 0.00 in   Overcast
11:36 PM 55.4 °F 53.6 °F 94% 29.73 in 10.0 mi West 8.1 mph - 0.00 in   Scattered Clouds
11:53 PM 55.0 °F 51.1 °F 86% 29.73 in 10.0 mi West 10.4 mph - 0.00 in   Clear